RH
56 59 61 65 72 73 68 65 62 62 56 52 51 63 58 62 76 74 64 72 72 73 71 65 64 62 55 50 50 50 48 44 45 49 49 50 50 50 50 51 52 52 51 51 54 55 57 54 53
58 60 62 61 90 77 69 69 70 59 59 56 57 62 54 52 57 59 66 70 73 74 72 72 69 66 58 54 52 52 51 46 46 50 51 51 51 52 52 51 49 49 48 50 53 55 57 56 55
57 59 64 62 71 74 70 63 64 61 65 71 67 54 50 52 57 61 65 69 74 74 75 68 69 68 64 61 59 57 57 51 48 51 53 53 53 53 53 51 50 53 52 52 51 52 55 57 59
55 62 60 81 69 71 68 64 60 67 64 63 68 67 52 55 56 62 66 68 73 78 78 67 68 69 70 68 66 64 65 59 56 57 58 57 58 58 57 56 59 58 59 57 57 56 57 66 66
54 56 60 69 68 65 62 58 60 64 65 67 66 73 54 54 55 57 65 72 75 78 76 69 67 69 72 72 71 72 74 69 61 57 59 58 59 62 67 68 60 58 52 45 49 55 61 70 76
58 51 57 63 60 52 53 56 59 63 59 61 65 67 52 52 53 58 67 74 77 82 80 73 68 66 69 71 74 76 79 77 71 62 61 59 56 61 68 69 60 54 49 48 49 53 57 61 69
55 51 53 55 48 51 52 51 56 60 66 68 65 70 51 52 53 57 68 73 84 85 77 76 75 69 67 67 71 77 80 79 78 70 55 53 55 59 70 65 56 54 53 48 46 45 51 60 64
48 51 47 50 56 48 45 47 49 63 56 66 68 70 59 59 54 57 66 75 83 80 78 76 76 79 74 70 74 74 78 78 78 75 58 52 53 58 63 63 58 54 52 48 45 45 48 55 65
47 49 52 50 46 44 46 46 45 51 56 63 67 71 67 64 57 58 63 74 79 80 79 80 83 76 75 84 79 77 83 81 77 77 67 52 64 89 80 64 70 58 60 54 47 49 51 54 64
49 48 50 50 41 45 40 46 46 57 55 57 61 66 63 59 58 59 61 69 74 77 83 87 83 85 81 81 86 86 87 87 85 77 71 60 76 94 98 89 70 75 79 67 47 45 47 53 64
50 49 52 53 56 47 49 48 45 59 46 54 55 61 62 60 57 60 63 68 71 73 78 78 82 83 87 81 82 82 92 90 86 81 76 67 75 81 83 71 81 82 81 77 62 46 49 55 86
46 39 49 52 48 53 50 51 42 37 40 49 52 55 58 60 57 58 61 70 71 72 78 75 81 88 87 82 84 90 92 89 89 85 81 75 67 69 80 75 87 94 90 87 78 69 68 87 54
44 39 38 38 42 53 49 46 48 37 39 44 51 54 54 55 55 58 60 64 68 72 73 78 78 90 88 84 87 91 90 87 88 85 81 80 69 82 86 81 83 85 83 83 72 72 67 61 63
31 32 33 36 40 39 47 43 61 40 37 41 49 50 53 57 58 57 62 67 70 71 77 77 78 79 86 87 87 86 88 88 87 83 80 72 76 74 86 85 85 77 78 71 71 69 71 65 62
28 39 37 39 43 44 55 41 43 40 41 46 47 52 52 56 57 55 63 64 67 68 76 78 79 80 81 83 84 82 88 93 89 86 79 76 67 75 77 85 85 80 77 65 63 62 58 72 73
32 34 41 34 31 41 49 47 36 41 46 45 48 49 53 54 57 58 59 60 61 64 72 73 75 77 79 79 84 80 83 88 89 86 84 78 73 69 79 85 89 84 71 72 64 66 64 71 79
32 42 35 34 29 37 50 48 33 42 50 50 46 48 47 51 55 56 59 62 65 67 67 72 73 76 80 79 81 81 86 85 85 83 82 81 75 64 75 94 92 85 74 76 72 70 69 69 72
32 31 30 33 28 30 37 44 33 39 51 54 50 45 50 54 52 51 55 58 61 65 66 67 70 70 73 77 79 82 82 83 85 86 83 83 76 73 72 88 83 76 79 79 72 69 71 78 83
30 30 30 30 26 25 36 41 47 35 43 52 51 52 51 51 47 47 50 55 58 57 56 58 58 66 72 72 78 78 85 85 86 86 89 86 82 76 66 83 82 76 79 84 73 60 63 75 77
30 28 28 28 22 25 35 34 40 39 36 46 52 60 57 54 45 44 45 49 50 50 48 50 52 54 64 71 74 78 82 89 87 83 83 83 83 81 74 64 79 79 79 78 78 70 70 75 77
30 25 32 24 27 23 25 31 30 26 37 38 50 60 65 52 44 47 47 46 47 46 46 48 51 54 55 62 65 71 77 80 87 90 83 81 78 82 85 73 59 70 82 85 82 75 67 75 77
30 29 22 22 23 23 23 34 39 28 31 35 46 54 61 57 48 42 53 55 56 48 49 51 50 53 54 55 60 64 76 76 76 73 70 78 83 83 85 92 72 58 74 83 84 80 81 80 80
29 24 22 24 25 24 23 25 43 38 30 38 46 49 57 58 59 54 53 58 58 56 56 57 56 57 57 53 53 59 65 64 63 67 66 68 73 74 76 79 80 79 64 63 74 88 85 84 86
27 23 19 18 22 21 20 18 41 48 40 37 42 46 52 53 56 59 57 57 59 57 58 56 58 57 55 56 58 58 77 63 75 80 70 69 67 65 68 77 81 78 82 78 62 68 74 81 81
21 21 20 21 20 19 21 23 44 56 46 42 42 42 41 49 57 56 57 58 59 60 55 56 56 57 52 57 63 64 64 66 76 78 78 76 75 73 70 62 74 85 84 91 92 72 75 82 81
24 18 18 30 30 45 33 25 45 49 39 40 42 43 41 45 59 58 59 62 62 63 58 58 55 58 58 61 63 62 64 66 73 75 74 68 74 82 89 70 61 68 80 82 86 84 75 77 80
23 23 19 19 29 35 43 31 49 49 41 43 45 44 44 47 51 55 57 60 64 62 64 61 57 57 58 61 65 65 66 70 68 65 61 60 64 64 71 74 70 64 59 74 84 79 80 73 81
23 24 19 20 32 30 45 54 54 51 47 45 47 47 48 51 53 57 60 59 63 65 65 64 62 58 60 62 66 70 72 74 65 61 56 48 51 58 66 73 75 75 69 59 65 85 86 77 68
20 22 23 27 29 37 47 58 53 39 35 47 47 51 49 52 59 61 64 63 62 66 69 70 63 60 62 63 67 68 68 63 58 56 50 47 45 49 58 61 62 64 78 81 80 69 65 82 87
28 28 30 24 29 28 35 38 37 66 46 41 47 50 54 54 54 58 63 65 66 66 67 65 62 62 63 63 61 63 57 48 48 46 46 42 38 37 46 53 57 56 61 71 78 78 82 59 57